TURKSAT 4B (40984 NORAD) Tracking and Keplerian Element Data

This shows tracking and keplerian element data for the satellite.

Feedback or suggestion? Click here.




ElementValue
Catalog40984
NameTURKSAT 4B
Epoch Orbit1132
Epoch Day318.71177775
Epoch Year2018
RAAN306.9228
Inclination0.0188
Eccentricity0.0002146
Argument of Perigee276.9701
Mean Anonmoly136.1184
Mean Motion1.00276618
Decay Rate1.15E-06
L11 40984U 15060A 18318.71177775 .00000115 00000-0 00000+0 0 9996
L22 40984 0.0188 306.9228 0002146 276.9701 136.1184 1.00276618 11321

Live tracking and technical data element details for TURKSAT 4B (NORAD 40984). TURKSAT 4B can be tracked NOW for your location showing map with azimuth and elevation plus other details from your city location.

Track the satellite on the map from your city or location and see movement details for azimuth, elevation, latitude, longitude, range, height, and movement on the map or in text.







IsCatalogInMostPopularTable: catalog: 40984, numindb: 140
Update: records affected: 1



GetName: 40984 TURKSAT 4B

Hit Count: updated at: Fri, 16 Nov 2018 10:00:46 GMT